www.pogodaiklimat.ru

Погода и климат >> Архив погоды >> Россия >> Якутия >> Кюсюр


ПОГОДА в Кюсюре

  • Прогноз погоды в Кюсюре
  • Монитор погоды в Кюсюре

АРХИВ ПОГОДЫ в Кюсюре

Время (UTC), дата Ветер
(напр.,м/с)
 
Видим.   Явления Облачность Т
(С)
Тd
(С)
f
(%)
Тe
(С)
Тes
(С)
Комфортность P
(гПа)
Po
(гПа)
Тmin
(С)
Tmax
(С)
R
(мм)
R24
(мм)
S
(см)
15 15.08 С 5 50 км 10/10 1000 м
[Sc]
+10.6 +8.5 87 +8 +8 1021.9 1017.9
18 15.08 С 4 50 км 10/10 1000 м
[Sc]
+10.0 +7.5 84 +7 +7 1022.6 1018.6
21 15.08 С 6 50 км 10/10 1000 м
[Sc]
+8.8 +6.0 83 +5 +5 1023.0 1019.0
00 16.08 С 6 50 км 10/10 1000 м
[Sc]
+9.0 +5.7 80 +5 +5 1023.3 1019.3 +8.2
03 16.08 СВ 6-10
{12}
50 км 10/10 1000 м
[Sc]
+10.6 +5.4 70 +8 +8 1023.6 1019.6
06 16.08 СВ 6-10
{11}
50 км 10/10 1000 м
[Sc]
+11.2 +5.1 66 +8 +8 1023.4 1019.4
09 16.08 СВ 6-10
{11}
50 км 10/10 1000 м
[Sc]
+11.0 +5.4 68 +8 +8 1023.3 1019.3
12 16.08 СВ 7-11
{11}
50 км 10/4 1000 м
[Sc Cs]
+9.4 +5.2 75 +6 +6 1023.2 1019.2 +11.4
15 16.08 СВ 6
{11}
50 км 10/10 1000 м
[Sc]
+8.2 +5.1 81 +4 +4 1022.7 1018.7
18 16.08 СВ 5 50 км 8/8 1000 м
[Sc]
+8.4 +4.3 75 +5 +5 1021.9 1017.9
21 16.08 СВ 4 50 км 10/6 1000 м
[Sc Cs]
+9.0 +5.2 77 +6 +6 1021.5 1007.5
00 17.08 СВ 6 50 км 10/6 1000 м
[Sc Cs]
+10.6 +5.6 71 +8 +8 1021.2 1017.2 +8.2
03 17.08 СВ 6 50 км 8/4 1000 м
[Sc Ci fib]
+12.7 +6.7 67 +10 +12 1020.7 1016.8
06 17.08 СВ 6 50 км 8/3 1000 м
[Sc Ci fib]
+13.1 +7.1 67 +11 +12 1020.3 1016.4
09 17.08 СВ 5 20 км дым 6/0
[Ci fib]
+12.2 +7.0 71 +10 +11 1020.1 1016.2
12 17.08 С 5 20 км дым 8/0
[Ci fib]
+10.0 +7.0 82 +7 +7 1020.4 1016.4 +13.5
15 17.08 СВ 4 10 км дым 10/0
[Cs]
+8.6 +6.9 89 +5 +5 1020.0 1016.0
18 17.08 СВ 3 10 км дым 10/0
[Cs]
+7.4 +6.1 91 +4 +4 1019.6 1015.6
21 17.08 СВ 2 10 км дым 10/8
[Sc Cs]
+9.0 +6.9 87 +7 +7 1019.7 1015.7
00 18.08 СВ 4 10 км дым 8/4 1000 м
[Sc Ac trans]
+12.4 +8.4 77 +10 +11 1019.1 1015.2 +6.3
03 18.08 С 4 10 км дым 10/0
[Ac trans Cs]
+15.6 +8.1 61 +15 +17 1018.6 1014.7
06 18.08 С 4 10 км дым 10/0
[Ac trans Cs]
+15.8 +7.4 57 +15 +17 1018.1 1014.2
09 18.08 С 3 10 км дым 10/0
[Ac trans Cs]
+16.0 +8.3 60 +16 +16 1017.5 1013.6
12 18.08 С 3 10 км дым 8/0
[Ac trans Ci fib]
+13.2 +8.2 72 +12 +12 1017.4 1013.5 +16.6
15 18.08 СВ 3 10 км дым 8/0
[Ac trans Ci fib]
+10.6 +8.8 89 +8 +8 1017.4 1013.5
18 18.08 СВ 2 10 км дым 6/0
[Ac trans Ci fib]
+7.2 +6.3 94 +5 +5 1017.2 1013.3
21 18.08 СВ 2 10 км дым 6/0
[Ac trans Ci fib]
+7.6 +6.7 94 +5 +6 1017.2 1013.3
00 19.08 СВ 2 4000 м дымка 10/0
[Ac trans Cs]
+9.7 +9.1 96 +8 +10 1017.0 1013.1 +5.7
03 19.08 СВ 2 20 км дым 8/0
[Ac trans Ci fib]
+13.8 +9.9 77 +13 +17 1016.5 1012.6
06 19.08 СЗ 1 10 км дым 8/0
[Ac trans Ci fib]
+17.4 +10.9 66 +18 +22 1016.7 1012.9
09 19.08 С 2 10 км дым 8/0
[Ac trans Ci fib]
+17.8 +12.4 71 +18 +19 1017.1 1013.3
12 19.08 штиль 0 10 км дым 8/0
[Ac trans Ci fib]
+14.4 +12.6 89 +14 +14 1018.0 1014.1 +18.9
15 19.08 СВ 2 10 км дым 6/0
[Ac trans]
+10.6 +9.8 95 +9 +9 1018.7 1014.8
18 19.08 штиль 0 10 км дым 6/0
[Ac trans]
+8.4 +7.8 96 +7 +7 1019.5 1015.5
21 19.08 штиль 0 500 м туман 10/0
[As trans]
+9.6 +9.6 100 +9 +9 1019.8 1015.8
00 20.08 штиль 0 2000 м дымка {туман} 10/0
[As trans]
+11.0 +10.8 99 +10 +12 1020.0 1016.0 +7.7
03 20.08 СВ 2 10 км дым 10/0
[Ac trans Cs]
+15.4 +11.9 80 +15 +18 1019.6 1015.7
06 20.08 С 2 10 км дым 10/0
[Ac trans Cs]
+19.0 +12.4 66 +21 +23 комфорт 1019.1 1015.3
09 20.08 СВ 4 10 км дым 10/0
[Ac und]
+18.2 +10.6 61 +18 +18 1019.2 1015.4
12 20.08 СВ 5 10 км дым 10/0
[Ac trans Cs]
+15.0 +7.6 61 +14 +14 1020.0 1016.1 +19.7
15 20.08 С 5 10 км дым 10/0
[Ac trans Cs]
+12.7 +8.3 75 +11 +11 1020.3 1016.4
18 20.08 СВ 5 10 км дым 10/0
[Ac trans Cs]
+11.8 +8.6 81 +9 +9 1020.6 1016.7
21 20.08 СВ 6 10 км дым 10/0
[Ac trans Cs]
+11.6 +8.8 83 +9 +9 1021.1 1017.2
00 21.08 СВ 6-10
{11}
50 км 10/3 1000 м
[Sc Ac trans Cs]
+12.0 +8.4 79 +9 +10 1021.6 1017.7 +11.4
03 21.08 СВ 7-10
{11}
20 км слаб. дождь 10/3 1000 м
[Sc Ac und]
+11.4 +8.6 83 +8 +8 1022.1 1018.2
06 21.08 СВ 8-12
{13}
50 км {дождь} 10/0
[Ac und]
+12.8 +8.2 74 +10 +10 1021.9 1018.0
09 21.08 СВ 8-11
{13}
50 км 10/0
[Ac und]
+12.1 +7.8 75 +9 +9 1022.1 1018.2
12 21.08 СВ 7-10
{12}
20 км дым 10/3 600 м
[Sc Ac und]
+10.4 +8.1 86 +7 +7 1022.7 1018.7 +12.8 0.0
15 21.08 СВ 6-10
{11}
10 км дым 10/10 1000 м
[Sc]
+10.0 +7.5 84 +7 +7 1022.3 1018.3
18 21.08 СВ 6-10
{10}
50 км 10/3 1000 м
[Sc Ac und]
+9.6 +6.8 83 +6 +6 1021.8 1017.8
21 21.08 СВ 6-10
{10}
50 км 10/3 1000 м
[Sc Ac und]
+9.6 +7.1 84 +6 +6 1021.4 1017.4
00 22.08 СВ 5
{10}
10 км дым {дождь} 10/3 1000 м
[Sc Ac und]
+10.2 +7.7 84 +7 +7 1020.9 1016.9 +8.9 0.4
03 22.08 С 4 10 км дым 10/3 1000 м
[Sc Ac und]
+11.6 +7.7 77 +9 +10 1019.9 1016.0
06 22.08 С 5 10 км дым 8/0
[Ac trans]
+13.4 +8.4 72 +12 +13 1018.5 1014.6
09 22.08 СВ 4 10 км дым 9/0
[Ac und]
+12.4 +7.5 72 +11 +11 1018.1 1014.2
12 22.08 СВ 4 10 км дым 8/0
[Ac trans]
+10.4 +7.9 84 +8 +8 1017.4 1013.5 +13.7

 

Местоположение метеостанции Кюсюр (Якутия, Россия): широта 70.68 долгота 127.40 высота над уровнем моря 33 м.

В архиве по умолчанию представлена погода в Кюсюре за последнюю неделю. Архивные данные за месяц целиком и за предыдущие месяцы, начиная с января 2011 года, Вы можете получить, выбрав интересующий диапазон дат из раскрывающегося списка и нажав кнопку "Ввод!".


*Определитесь, кто Вы:
робот инопланетянин человек

Внимание! Время в таблицах - всемирное. Для получения местного времени необходимо прибавить поправку, которая равна 9 ч.

Смотрите также архив погоды в соседних городах и на ближайших метеорологических станциях:

Погода в Тикси (Якутия, Россия) (114 км)
Погода на Мысе Быков (Якутия, Россия) (159 км)
Погода на Столб Острове (Якутия, Россия) (195 км)
Погода в Тюмяти (Якутия, Россия) (196 км)
Погода в Джарджане (Якутия, Россия) (253 км)
Погода в Усть-Куйге (Якутия, Россия) (316 км)
Погода в Юбилейной (Якутия, Россия) (323 км)
Погода в Батагай-Алыте (Якутия, Россия) (343 км)
Погода на Усть-Оленеке (Якутия, Россия) (368 км)
Погода в Сухане (Якутия, Россия) (419 км)

Пояснения к столбцам:

Ветер - указаны скорость ветра в м/с - средняя за 10 мин, порывы в срок и между сроками (в фигурных скобках) и направление, откуда дует ветер: С - северный, СВ - северо-восточный, В - восточный, ЮВ - юго-восточный, Ю - южный, ЮЗ - юго-западный, З - западный, СЗ - северо-западный.
Видимость - горизонтальная дальность видимости в метрах или километрах. При видимости от 1 до 10 км при отсутствии осадков обычно наблюдается дымка, при ухудшении видимости до 1 км и менее - туман. В сухую погоду видимость может ухудшаться дымом, пылью или мглою.
Явления - указаны атмосферные явления, наблюдавшиеся в срок или в последний час перед сроком; фигурными скобками обозначены явления, наблюдавшиеся между сроками (за 1-3 часа до срока); квадратными скобками обозначены град или гололедные отложения с указанием их диаметра в мм.
Облачность - указаны через наклонную черту общая и нижняя облачность в баллах и высота нижней границы облаков в метрах; квадратными скобками обозначены формы облаков: Ci - перистые, Cs - перисто-слоистые, Cc - перисто-кучевые, Ac - высококучевые, As - высокослоистые, Sc - слоисто-кучевые, Ns - слоисто-дождевые, Cu - кучевые, Cb - кучево-дождевые. Подробнее классификацию облаков см. в Атласе облаков (PDF).
T - Температура воздуха - температура, измеренная на высоте 2 м над землей.
Td - Температура точки росы - температура, при понижении до которой содержащийся в воздухе водяной пар достигнет насыщения.
f - Относительная влажность воздуха - влажноcть воздуха, измеренная на высоте 2 м над землей.
Te - Эффективная температура - температура, которую ощущает одетый по сезону человек в тени. Характеристика душности погоды. При расчете учитывается влияние влажности воздуха и скорости ветра на теплоощущения человека.
Tes - Эффективная температура на солнце - температура, которую ощущает человек, с поправкой на солнечный нагрев. Характеристика знойности погоды. Зависит от высоты солнца над горизонтом, облачности и скорости ветра. Ночью, в пасмурную погоду, а также при ветре 12 м/с и более поправка равна нулю.
P - Атмосферное давление - приведенное к уровню моря атмосферное давление.
Po - Атмосферное давление - измеренное на уровне метеостанции атмосферное давление.
Tmin - Минимальная температура - минимум температуры воздуха на высоте 2 м над землей.
Tmax - Максимальная температура - максимум температуры воздуха на высоте 2 м над землей.
R - Количество осадков - Количество выпавших осадков за период времени, мм. При наведении курсора мыши на число - период времени, за который выпало указанное количество осадков.
R24 - Количество осадков - Количество выпавших осадков за 24 часа, мм.
S - Снежный покров - Высота снежного покрова, см. При наведении курсора мыши на число - состояние снежного покрова и степень покрытия местности в баллах.